ONEWEB-0455, 51645

Orbit data source: Space-Track

ONEWEB-0455, 51645 is a payload satellite owned by One Web (NAA) (UK) in LEO that was launched on Thu, 10 Feb 2022 UTC via a SOYUZ-ST-B launch vehicle from the French Guiana (FRGUI). Payload-class satellites include a variety of spacecraft equipped with specific instruments for various scientific and technological missions. These include communications satellites like Starlink; space stations such as the ISS; scientific satellites like the Hubble; Earth observation satellites from companies like Planet Labs, Umbra, and HawkEye 360; GPS; miniature CubeSats for education and research; and military/defense satellites.

Loading next visibility...
Identifier
51645, 2022-012Z
Orbit
LEO
Country
Flag of UKUK
Related business
Manufacturer
One Web
Mission
Non-operational Commercial Communications
Bus & Motor
ARROW, Unknown motor
Mass
148 kg wet, ~140 kg dry
Launch date (UTC)
2022-02-10 (4 years ago)
Launch vehicle
SOYUZ-ST-B
Launch site
French Guiana (FRGUI)
Object type
Payload
Rocket body
Debris
Shape & HBR
Trap Box + 2 Pan, 6.7 m
Radar Cross Section
3.464 m², Large (>1 m²)

Expand to show TLE details & history
Last TLE update: 2 days ago

TLE from 2 days ago
0 ONEWEB-0455
1 51645U 22012Z   26171.35342084  .00000213  00000-0  85632-4 0  9998
2 51645  87.5281 271.4380 0018818 129.8997 230.3852 14.23642565226595
Epoch: 2026-06-20T08:28Z
TLE epoch observation values (Epoch: 2026-06-20T08:28:55.560Z)
Latitude
-0.00005°
Longitude
-124.36276°
Altitude
824.754 km
Speed
7.436 km/s
True Right ascension
18h 05m 45s
True Declination
0° 00' 00"
Sunlit
Object was in full shadow at epoch
Visualization orbit readout
Latitude
Unknown
Longitude
Unknown
Altitude
Unknown
Speed
Unknown
Apparent Right ascension
Unknown
Apparent Declination
Unknown
Sunlit
N/A
Visualization observer readout
Local Sidereal Time
21:23:27
Azimuth
Unknown
Elevation
Unknown
Doppler factor
Unknown
Orbital elements
Apogee altitude
823.547 km
Perigee altitude
796.494 km
Semi-major axis
7,188.157 km
Eccentricity
0.00188
Inclination
87.5281°
RAAN
271.438°
Arg. of periapsis
129.8997°
True anomaly
230.21933°
Mean anomaly
230.3852°
Eccentric anomaly
230.30224°
Mean motion
3.56137 °/min
Orbital period
101.08 mins
BSTAR
0.000085632
Loading maneuver chart data...
Computing Atmospheric mass density...
Loading historical data...
Loading historical data...
Loading historical data...
Loading historical data...
Loading historical data...
Loading historical data...
Loading historical data...

Documentation

Showing up to 5 results
|